EW9732 Weather Reports


time (UTC)temp
C
wind
direction
speed
KPH
gust
KPH
rain 1hr
cm
rain 24hr
cm
rain mn
cm
humidity
%
barometer
mb
20240521034520 10 32 4.8 14.5 0.03 0.10 0.10 77 1003.7
20240521033018 11 314 3.2 27.4 0.03 0.10 0.10 76 1002.9
20240521031520 11 231 6.4 19.3 0.03 0.10 0.10 72 1002.5
20240521030020 12 25 4.8 14.5 0.03 0.10 0.10 67 1001.5
20240521024519 14 43 0.0 0.0 0.00 0.08 0.08 69 1000.1
20240521023017 14 43 0.0 0.0 0.00 0.08 0.08 68 999.8
20240521021517 14 20 0.0 1.6 0.00 0.08 0.08 74 999.6
20240521020016 15 265 0.0 0.0 0.00 0.08 0.08 76 999.7
20240521014515 15 265 0.0 0.0 0.00 0.08 0.08 72 999.6
20240521013025 15 275 0.0 1.6 0.00 0.08 0.08 71 999.3
20240521011516 15 274 0.0 4.8 0.00 0.08 0.08 75 998.7
20240521010015 15 96 0.0 3.2 0.08 0.08 0.08 75 998.5
20240521004515 15 271 0.0 3.2 0.08 0.08 0.08 74 998.9
20240521003012 15 274 1.6 8.0 0.08 0.08 0.08 72 998.7
20240521001515 15 293 1.6 14.5 0.08 0.08 0.08 71 999.0
20240521000009 16 27 0.0 12.9 0.00 0.00 0.00 59 998.1
20240520234509 17 288 4.8 16.1 0.00 0.00 0.00 49 998.8
20240520233008 18 309 1.6 9.7 0.00 0.00 0.00 48 998.0
20240520231513 18 275 1.6 12.9 0.00 0.00 0.00 47 998.8
20240520230007 18 295 1.6 9.7 0.00 0.00 0.00 48 998.2
20240520224512 18 238 1.6 17.7 0.00 0.00 0.00 46 998.7
20240520223012 19 321 3.2 24.1 0.00 0.00 0.00 45 998.5
20240520221503 19 278 3.2 14.5 0.00 0.00 0.00 45 998.9
20240520220007 20 311 1.6 19.3 0.00 0.00 0.00 45 998.7
20240520214502 20 30 1.6 16.1 0.00 0.00 0.00 44 998.9
20240520213103 20 273 1.6 9.7 0.00 0.00 0.00 44 999.0
20240520211558 21 38 1.6 12.9 0.00 0.00 0.00 43 999.2
20240520210059 20 346 4.8 17.7 0.00 0.00 0.00 44 999.5
20240520204557 21 22 4.8 11.3 0.00 0.00 0.00 42 999.8
20240520203052 21 296 0.0 9.7 0.00 0.00 0.00 42 1000.0
20240520201551 22 268 3.2 11.3 0.00 0.00 0.00 41 1000.4
20240520200050 21 146 4.8 9.7 0.00 0.00 0.00 42 1001.0
20240520194557 20 74 4.8 14.5 0.00 0.00 0.00 45 1001.0
20240520193042 20 9 4.8 14.5 0.00 0.00 0.00 43 1001.4
20240520191538 19 89 1.6 12.9 0.00 0.00 0.00 45 1001.8
20240520190051 19 15 3.2 9.7 0.00 0.00 0.00 46 1002.1
20240520184532 18 96 4.8 12.9 0.00 0.00 0.00 46 1002.3
20240520183051 18 344 1.6 9.7 0.00 0.00 0.00 48 1002.7
20240520181525 17 136 0.0 14.5 0.00 0.00 0.00 48 1003.1
20240520180023 17 113 4.8 12.9 0.00 0.00 0.00 47 1003.2
20240520174520 17 19 4.8 12.9 0.00 0.00 0.00 49 1003.6
20240520173018 16 50 0.0 11.3 0.00 0.00 0.00 48 1003.7
20240520171518 16 67 0.0 8.0 0.00 0.00 0.00 50 1003.8
20240520170015 16 124 1.6 6.4 0.00 0.00 0.00 48 1004.1
20240520164527 16 329 0.0 8.0 0.00 0.00 0.00 51 1004.1
20240520163009 15 51 0.0 11.3 0.00 0.00 0.00 53 1004.4
20240520161507 14 85 3.2 9.7 0.00 0.00 0.00 54 1004.4
20240520160003 13 76 0.0 9.7 0.00 0.00 0.00 56 1004.8
20240520154503 13 134 1.6 8.0 0.00 0.00 0.00 56 1005.5
20240520153100 13 59 0.0 6.4 0.00 0.00 0.00 56 1005.9
20240520151558 12 266 0.0 4.8 0.00 0.00 0.00 57 1006.3
20240520150057 12 72 1.6 6.4 0.00 0.00 0.00 57 1006.5
20240520144600 12 63 0.0 3.2 0.00 0.00 0.00 57 1006.7
20240520143055 11 297 0.0 4.8 0.00 0.00 0.00 60 1006.9
20240520141557 11 11 0.0 0.0 0.00 0.00 0.00 59 1007.2
20240520140055 11 6 0.0 6.4 0.00 0.00 0.00 60 1007.4
20240520134553 10 300 0.0 8.0 0.00 0.00 0.00 61 1007.9
20240520133052 10 26 0.0 4.8 0.00 0.00 0.00 63 1008.0
20240520131604 10 136 0.0 6.4 0.00 0.00 0.00 66 1007.9
20240520130056 9 81 0.0 3.2 0.00 0.00 0.00 70 1007.6
20240520124548 8 24 0.0 0.0 0.00 0.00 0.00 71 1007.4
20240520123053 8 24 0.0 0.0 0.00 0.00 0.00 72 1007.3
20240520121545 8 25 0.0 4.8 0.00 0.00 0.00 72 1007.1
20240520120043 8 66 0.0 1.6 0.00 0.00 0.00 72 1007.0
20240520114540 8 89 0.0 3.2 0.00 0.00 0.00 72 1006.9
20240520113044 9 65 0.0 3.2 0.00 0.00 0.00 71 1006.6
20240520111535 10 34 0.0 8.0 0.00 0.00 0.00 69 1006.7
20240520110035 10 354 0.0 4.8 0.00 0.00 0.00 69 1006.3
20240520104531 10 42 0.0 6.4 0.00 0.00 0.00 67 1005.9
20240520103028 10 7 0.0 4.8 0.00 0.00 0.00 66 1005.5
20240520101527 10 13 0.0 0.0 0.00 0.00 0.00 66 1005.4
20240520100034 10 54 0.0 0.0 0.00 0.00 0.00 67 1005.3
20240520094526 10 86 0.0 0.0 0.00 0.00 0.00 69 1005.2
20240520093024 10 103 0.0 0.0 0.00 0.00 0.00 71 1005.1
20240520091522 10 103 0.0 0.0 0.00 0.00 0.00 71 1005.1
20240520090018 10 103 0.0 0.0 0.00 0.00 0.00 69 1004.9
20240520084517 11 103 0.0 0.0 0.00 0.00 0.00 67 1004.7
20240520083033 11 103 0.0 0.0 0.00 0.00 0.00 66 1004.8
20240520081515 11 123 0.0 0.0 0.00 0.00 0.00 67 1004.8
20240520080013 11 117 0.0 0.0 0.00 0.00 0.00 67 1004.8
20240520074511 11 136 0.0 0.0 0.00 0.00 0.00 66 1004.4
20240520073009 11 134 0.0 3.2 0.00 0.00 0.00 67 1004.0
20240520071519 11 107 0.0 0.0 0.00 0.00 0.00 65 1004.0
20240520070010 11 231 0.0 0.0 0.00 0.00 0.00 65 1003.9
20240520064505 11 108 0.0 0.0 0.00 0.00 0.00 64 1003.7
20240520063107 12 108 0.0 0.0 0.00 0.00 0.00 63 1003.9
20240520061600 12 108 0.0 0.0 0.00 0.00 0.00 61 1003.7
20240520060105 13 108 0.0 0.0 0.00 0.00 0.00 59 1003.5
20240520054607 13 113 0.0 0.0 0.00 0.00 0.00 56 1003.5
20240520053049 13 113 0.0 0.0 0.00 0.00 0.00 54 1003.4
20240520051553 15 113 0.0 1.6 0.00 0.00 0.00 52 1003.2
20240520050048 15 147 0.0 0.0 0.00 0.00 0.00 50 1003.2
20240520044548 15 214 0.0 3.2 0.00 0.00 0.00 49 1003.0
20240520043054 16 214 0.0 1.6 0.00 0.00 0.00 48 1002.9
20240520041547 16 138 0.0 6.4 0.00 0.00 0.00 46 1002.7
20240520040047 16 82 0.0 9.7 0.00 0.00 0.00 45 1002.4